Weather History for Shanghai Hongqiao, SH

Change the Weather History Date:

Friday, July 19, 2013

  Actual Average Record
Temperature  
Mean Temperature 88 °F -  
Max Temperature 95 °F 89 °F 96 °F (1997)
Min Temperature 82 °F 76 °F 71 °F (1999)
Cooling Degree Days 24    
Growing Degree Days 38 (Base 50)    
Moisture  
Dew Point 72 °F    
Average Humidity 60    
Maximum Humidity 74    
Minimum Humidity 47    
Precipitation  
Precipitation 0.00 in 0.17 in - ()
Sea Level Pressure  
Sea Level Pressure 29.70 in    
Wind  
Wind Speed 14 mph ()    
Max Wind Speed 20 mph    
Max Gust Speed 31 mph    
Visibility 6.2 miles    
Events      
Averages and records for this station are not official NWS values.
T = Trace of Precipitation, MM = Missing Value Source: Averaged Metar Reports

Daily Weather History Graph

Daily Weather History Graph

Search for Another Location

Airport:

Trip Planner

Search our weather history database for the weather conditions in past years. The results will help you decide how hot, cold, wet, or windy it might be!

Date:

Astronomy

Jul. 19, 2013 Rise Set
Actual Time 5:03 AM CST 6:58 PM CST
Civil Twilight 4:36 AM CST 7:25 PM CST
Nautical Twilight 4:03 AM CST 7:58 PM CST
Astronomical Twilight 3:28 AM CST 8:33 PM CST
Moon 3:23 PM CST (7/19) 1:11 AM CST (7/19)
Length of Visible Light 14h 49m
Length of Day
13h 55m
Waxing Gibbous, 82% of the Moon is Illuminated
Jul 19
Waxing Gibbous
Jul 23
Full
Jul 30
Last Quarter
Aug 7
New
Aug 14
First Quarter

Hourly Weather History & Observations

Time (CST) Temp. Heat Index Dew Point Humidity Pressure Visibility Wind Dir Wind Speed Gust Speed Precip Events Conditions
12:00 AM 84.2 °F 90.9 °F 73.4 °F 70% 29.71 in - SSE 13.4 mph - N/A   Clear
12:30 AM 82.4 °F 88.2 °F 73.4 °F 74% 29.71 in - SSE 15.7 mph - N/A   Clear
1:00 AM 82.4 °F 88.2 °F 73.4 °F 74% 29.71 in - SSE 15.7 mph - N/A   Clear
1:30 AM 82.4 °F 88.2 °F 73.4 °F 74% 29.71 in - SSE 15.7 mph - N/A   Clear
2:00 AM 82.4 °F 88.2 °F 73.4 °F 74% 29.71 in - SSE 15.7 mph - N/A   Clear
2:30 AM 82.4 °F 87.2 °F 71.6 °F 70% 29.71 in - SSE 15.7 mph - N/A   Clear
3:00 AM 82.4 °F 87.2 °F 71.6 °F 70% 29.71 in - SSE 15.7 mph - N/A   Clear
3:30 AM 82.4 °F 87.2 °F 71.6 °F 70% 29.71 in - SSE 13.4 mph - N/A   Clear
4:00 AM 82.4 °F 87.2 °F 71.6 °F 70% 29.71 in - SSE 15.7 mph - N/A   Clear
4:30 AM 82.4 °F 87.2 °F 71.6 °F 70% 29.71 in - SSE 13.4 mph - N/A   Clear
5:00 AM 82.4 °F 87.2 °F 71.6 °F 70% 29.71 in - SSE 11.2 mph - N/A   Clear
5:30 AM 82.4 °F 87.2 °F 71.6 °F 70% 29.71 in - South 13.4 mph - N/A   Clear
6:00 AM 82.4 °F 87.2 °F 71.6 °F 70% 29.71 in - SSE 13.4 mph - N/A   Clear
6:30 AM 84.2 °F 89.6 °F 71.6 °F 66% 29.74 in - South 13.4 mph - N/A   Clear
7:00 AM 84.2 °F 89.6 °F 71.6 °F 66% 29.74 in - SSE 13.4 mph - N/A   Clear
7:30 AM 84.2 °F 89.6 °F 71.6 °F 66% 29.74 in - SSE 13.4 mph - N/A   Clear
8:00 AM 86.0 °F 90.4 °F 69.8 °F 58% 29.74 in - South 15.7 mph - N/A   Clear
8:30 AM 87.8 °F 92.6 °F 69.8 °F 55% 29.74 in - South 17.9 mph - N/A   Clear
9:00 AM 87.8 °F 92.6 °F 69.8 °F 55% 29.74 in - South 17.9 mph - N/A   Clear
9:30 AM 89.6 °F 96.2 °F 71.6 °F 55% 29.74 in - South 15.7 mph - N/A   Clear
10:00 AM 89.6 °F 96.2 °F 71.6 °F 55% 29.74 in 6.2 mi SSE 17.9 mph - N/A   Partly Cloudy
10:30 AM 91.4 °F 96.8 °F 69.8 °F 49% 29.71 in 6.2 mi South 20.1 mph - N/A   Partly Cloudy
11:00 AM 91.4 °F 96.8 °F 69.8 °F 49% 29.71 in 6.2 mi South 17.9 mph - N/A   Scattered Clouds
11:30 AM 91.4 °F 98.4 °F 71.6 °F 52% 29.71 in 6.2 mi South 15.7 mph - N/A   Mostly Cloudy
12:00 PM 93.2 °F 100.5 °F 71.6 °F 49% 29.71 in 6.2 mi South 17.9 mph 31.3 mph N/A   Mostly Cloudy
12:30 PM 91.4 °F 98.4 °F 71.6 °F 52% 29.71 in 6.2 mi SSE 15.7 mph - N/A   Mostly Cloudy
1:00 PM 93.2 °F 100.5 °F 71.6 °F 49% 29.71 in 6.2 mi South 15.7 mph - N/A   Mostly Cloudy
1:30 PM 95.0 °F 103.2 °F 71.6 °F 47% 29.68 in 6.2 mi South 15.7 mph - N/A   Mostly Cloudy
2:00 PM 93.2 °F 100.5 °F 71.6 °F 49% 29.68 in 6.2 mi South 15.7 mph - N/A   Mostly Cloudy
2:30 PM 93.2 °F 100.5 °F 71.6 °F 49% 29.68 in 6.2 mi South 15.7 mph - N/A   Mostly Cloudy
3:00 PM 93.2 °F 100.5 °F 71.6 °F 49% 29.68 in 6.2 mi SSE 17.9 mph - N/A   Scattered Clouds
3:30 PM 93.2 °F 100.5 °F 71.6 °F 49% 29.65 in - SSE 15.7 mph - N/A   Clear
4:00 PM 93.2 °F 100.5 °F 71.6 °F 49% 29.65 in - SSE 15.7 mph - N/A   Clear
4:30 PM 93.2 °F 102.4 °F 73.4 °F 52% 29.65 in - SSE 15.7 mph - N/A   Clear
5:00 PM 93.2 °F 102.4 °F 73.4 °F 52% 29.65 in - SSE 15.7 mph - N/A   Clear
5:30 PM 91.4 °F 102.5 °F 75.2 °F 59% 29.65 in - South 13.4 mph - N/A   Clear
6:00 PM 91.4 °F 102.5 °F 75.2 °F 59% 29.65 in - SSE 13.4 mph - N/A   Clear
6:30 PM 91.4 °F 100.1 °F 73.4 °F 55% 29.65 in - SSE 13.4 mph - N/A   Clear
7:00 PM 89.6 °F 98.2 °F 73.4 °F 59% 29.65 in - SSE 13.4 mph - N/A   Clear
7:30 PM 87.8 °F 93.8 °F 71.6 °F 58% 29.68 in - SSE 15.7 mph - N/A   Clear
8:00 PM 87.8 °F 93.8 °F 71.6 °F 58% 29.68 in - SSE 15.7 mph - N/A   Clear
8:30 PM 87.8 °F 93.8 °F 71.6 °F 58% 29.68 in - South 15.7 mph - N/A   Clear
9:00 PM 86.0 °F 91.8 °F 71.6 °F 62% 29.71 in - South 15.7 mph - N/A   Clear
9:30 PM 86.0 °F 91.8 °F 71.6 °F 62% 29.71 in - South 15.7 mph - N/A   Clear
10:00 PM 86.0 °F 91.8 °F 71.6 °F 62% 29.71 in - South 13.4 mph - N/A   Clear
10:30 PM 86.0 °F 91.8 °F 71.6 °F 62% 29.71 in - South 15.7 mph - N/A   Clear
11:00 PM 84.2 °F 89.6 °F 71.6 °F 66% 29.71 in - SSE 15.7 mph - N/A   Clear
11:30 PM 84.2 °F 89.6 °F 71.6 °F 66% 29.71 in - SSE 13.4 mph - N/A   Clear